Other Surface Observations
Issued by NWS Charleston, SC

Home | Current Version | Previous Version | Text Only | Print | Product List | Glossary On
Versions: 1 2 3 4 5 6 7 8 9 10 11 12 13 14 15 16 17 18 19 20 21 22 23 24 25 26 27 28 29 30 31 32 33 34 35 36 37 38 39 40 41 42 43 44 45 46 47 48 49 50
000
SXUS52 KCHS 011925
OSOCHS

MARINE OBSERVATIONS
NATIONAL WEATHER SERVICE CHARLESTON SC
300 PM EDT WED OCT 01 2014

...DOWNTOWN CHARLESTON AND HARBOR...

CITY           SKY/WX    TMP DP  RH WIND       PRES   REMARKS
WATERFRONT PRK   N/A     77 N/A N/A SE10        N/A
FORT JOHNSON   NOT AVBL

...LAKE MOULTRIE...

CITY           SKY/WX    TMP DP  RH WIND       PRES   REMARKS
PINOPOLIS        N/A     82  66  57 N3        29.92F

...LAKE AND SUPPLEMENTAL COASTAL OBSERVATIONS...

STATION/POSITION TIME  TEMP    WIND        PRES    WAVE   SWELL
                       AIR SEA DIR/SP/G            HT/PER HT/PER/DIR
                 (UTC) (F)     (DEG/KT/KT) (MB)    (FT/S) (FT/S/D)
FORT PULASKI     1900   77      70/  8/  8 1015.5R
SAPELO ISLAND    NOT AVBL
UPR LAKE MARION  NOT AVBL
WINYAH BAY       1900   75     100/  6     1015.0S
LAKE MURRAY      1800   80     200/  6/  6 1014.2F
ACE BASIN NERRS  1900   78        CALM     1015.0S


...C-MAN AND BUOY OBSERVATIONS...

STATION/POSITION TIME  TEMP    WIND        PRES    WAVE   SWELL
                       AIR SEA DIR/SP/G            HT/PER HT/PER/DIR
                 (UTC) (F)     (DEG/KT/KT) (MB)    (FT/S) (FT/S/D)
BUOY 41004       1900   77 81   40/  8/ 12 1014.4F   3/ 6   2/ 6
BUOY 41008       1900   77 79   40/ 10/ 12 1014.7F   2/ 6   2/ 80/ 6
FOLLY BEACH CMAN 1900   76     120/  6/  7 1015.6S
CAPERS NS BUOY   1800   76      90/  8/ 10   N/A
FRIPP NS BUOY    NOT AVBL
5E ST. MARYS GA  1800      79                N/A     3/ 7
FRYING PAN BUOY  NOT AVBL
BUOY 41025       1800   72     350/ 16/ 19 1014.0    4/ 7   3/ 70/ 7
CAPE LOOKOUT NC  1900   75      50/  8/  9 1014.6F
BUOY 41002       1824   78 81   10/ 12/ 14 1012.4F   4/ 6   3/ 20/ 6
BUOY 41010       1900   80 84   20/  4/  6 1013.3F   3/ 8   3/ 20/ 8
BUOY 41012       NOT AVBL
ST AUGUSTINE FL  1900   79      30/ 14/ 15 1014.2F


$$



USA.gov is the U.S. government's official web portal to all federal, state and local government web resources and services.